EN

Hourly Weather Otanche

Today, 14 May, Friday

Time Temperature Precipitation Wind Pressure Humidity
00:00 +20°C° 1 mm 1 mps 670 mmHg 95%
01:00 +19°C° 1 mm 1 mps 670 mmHg 95%
02:00 +19°C° 0.2 mm 1 mps 670 mmHg 95%
03:00 +19°C° 0.2 mm 1 mps 670 mmHg 94%
04:00 +19°C° 0.2 mm 1 mps 669 mmHg 94%
05:00 +19°C° 0.1 mm 1 mps 670 mmHg 92%
06:00 +20°C° 0.1 mm 1 mps 671 mmHg 90%
07:00 +21°C° 0.1 mm 1 mps 671 mmHg 88%
08:00 +23°C° 0.1 mm 1 mps 672 mmHg 79%
09:00 +26°C° 0.1 mm 1 mps 672 mmHg 70%
10:00 +28°C° 0.1 mm 1 mps 673 mmHg 61%
11:00 +28°C° 0.2 mm 1 mps 672 mmHg 62%
12:00 +29°C° 0.2 mm 1 mps 671 mmHg 62%
13:00 +29°C° 0.2 mm 1 mps 670 mmHg 63%
14:00 +29°C° 0.7 mm 1 mps 670 mmHg 68%
15:00 +28°C° 0.7 mm 1 mps 670 mmHg 73%
16:00 +25°C° 0.7 mm 0 mps 669 mmHg 78%
17:00 +26°C° 0.9 mm 1 mps 669 mmHg 83%
18:00 +24°C° 0.9 mm 1 mps 669 mmHg 88%
19:00 +22°C° 0.9 mm 1 mps 669 mmHg 93%
20:00 +22°C° 1.8 mm 1 mps 670 mmHg 94%
21:00 +21°C° 1.8 mm 1 mps 670 mmHg 95%
22:00 +21°C° 1.8 mm 1 mps 671 mmHg 96%
23:00 +20°C° 1.1 mm 1 mps 671 mmHg 96%

Tomorrow, 15 May, Saturday

Time Temperature Precipitation Wind Pressure Humidity
00:00 +20°C° 1.1 mm 1 mps 670 mmHg 96%
01:00 +20°C° 1.1 mm 1 mps 670 mmHg 96%
02:00 +20°C° 0.4 mm 1 mps 670 mmHg 96%
03:00 +20°C° 0.4 mm 1 mps 670 mmHg 95%
04:00 +20°C° 0.4 mm 1 mps 670 mmHg 95%
05:00 +20°C° 0 mm 1 mps 671 mmHg 93%
06:00 +21°C° 0 mm 1 mps 671 mmHg 92%
07:00 +21°C° 0 mm 1 mps 671 mmHg 90%
08:00 +23°C° 0.3 mm 1 mps 672 mmHg 85%
09:00 +25°C° 0.3 mm 1 mps 672 mmHg 79%
10:00 +27°C° 0.3 mm 1 mps 673 mmHg 73%
11:00 +27°C° 0.5 mm 1 mps 672 mmHg 72%
12:00 +28°C° 0.5 mm 1 mps 671 mmHg 70%
13:00 +28°C° 0.5 mm 1 mps 671 mmHg 69%
14:00 +27°C° 1.4 mm 1 mps 670 mmHg 75%
15:00 +27°C° 1.4 mm 1 mps 670 mmHg 81%
16:00 +26°C° 1.4 mm 1 mps 669 mmHg 87%
17:00 +24°C° 2.2 mm 1 mps 669 mmHg 90%
18:00 +23°C° 2.2 mm 1 mps 670 mmHg 94%
19:00 +22°C° 2.2 mm 1 mps 670 mmHg 97%
20:00 +22°C° 4.7 mm 1 mps 670 mmHg 98%
21:00 +21°C° 4.7 mm 1 mps 671 mmHg 98%
22:00 +21°C° 4.7 mm 1 mps 672 mmHg 98%
23:00 +21°C° 1.5 mm 1 mps 671 mmHg 98%

Day after tomorrow, 16 May, Sunday

Time Temperature Precipitation Wind Pressure Humidity
00:00 +20°C° 1.5 mm 1 mps 671 mmHg 98%
01:00 +20°C° 1.5 mm 1 mps 671 mmHg 98%
02:00 +20°C° 0.1 mm 1 mps 671 mmHg 97%
03:00 +20°C° 0.1 mm 1 mps 671 mmHg 97%
04:00 +20°C° 0.1 mm 1 mps 671 mmHg 97%
05:00 +20°C° 0 mm 1 mps 671 mmHg 96%
06:00 +20°C° 0 mm 1 mps 671 mmHg 95%
07:00 +21°C° 0 mm 1 mps 671 mmHg 94%
08:00 +22°C° 0.1 mm 1 mps 672 mmHg 88%
09:00 +21°C° 0.1 mm 0 mps 672 mmHg 83%
10:00 +23°C° 0.1 mm 0 mps 673 mmHg 77%
11:00 +26°C° 0.1 mm 1 mps 672 mmHg 73%
12:00 +27°C° 0.1 mm 1 mps 672 mmHg 68%
13:00 +28°C° 0.1 mm 1 mps 671 mmHg 64%
14:00 +27°C° 0.7 mm 1 mps 671 mmHg 71%
15:00 +26°C° 0.7 mm 1 mps 670 mmHg 78%
16:00 +25°C° 0.7 mm 1 mps 670 mmHg 86%
17:00 +24°C° 1.5 mm 1 mps 670 mmHg 89%
18:00 +23°C° 1.5 mm 1 mps 671 mmHg 93%
19:00 +20°C° 1.5 mm 0 mps 671 mmHg 96%
20:00 +21°C° 0.9 mm 1 mps 671 mmHg 97%
21:00 +21°C° 0.9 mm 1 mps 672 mmHg 97%
22:00 +21°C° 0.9 mm 1 mps 672 mmHg 97%
23:00 +21°C° 0.4 mm 1 mps 672 mmHg 97%

17 May, Monday

Time Temperature Precipitation Wind Pressure Humidity
00:00 +21°C° 0.4 mm 1 mps 671 mmHg 97%
01:00 +21°C° 0.4 mm 1 mps 671 mmHg 97%
02:00 +20°C° 0.2 mm 1 mps 671 mmHg 97%
03:00 +20°C° 0.2 mm 1 mps 671 mmHg 97%
04:00 +20°C° 0.2 mm 1 mps 671 mmHg 96%
05:00 +20°C° 0.1 mm 1 mps 671 mmHg 96%
06:00 +19°C° 0.1 mm 0 mps 672 mmHg 96%
07:00 +19°C° 0.1 mm 0 mps 672 mmHg 95%
08:00 +20°C° 0.1 mm 0 mps 672 mmHg 91%
09:00 +21°C° 0.1 mm 0 mps 673 mmHg 86%
10:00 +23°C° 0.1 mm 0 mps 673 mmHg 81%
11:00 +26°C° 0.3 mm 1 mps 672 mmHg 75%
12:00 +27°C° 0.3 mm 1 mps 672 mmHg 70%
13:00 +28°C° 0.3 mm 1 mps 671 mmHg 64%
14:00 +27°C° 1.4 mm 1 mps 671 mmHg 72%
15:00 +25°C° 1.4 mm 1 mps 670 mmHg 81%
16:00 +22°C° 1.4 mm 0 mps 670 mmHg 89%
17:00 +21°C° 3.7 mm 0 mps 670 mmHg 92%
18:00 +22°C° 3.7 mm 1 mps 671 mmHg 94%
19:00 +21°C° 3.7 mm 1 mps 671 mmHg 97%
20:00 +21°C° 3.5 mm 1 mps 671 mmHg 97%
21:00 +21°C° 3.5 mm 1 mps 672 mmHg 98%
22:00 +21°C° 3.5 mm 1 mps 672 mmHg 98%
23:00 +20°C° 0.6 mm 1 mps 672 mmHg 98%

18 May, Tuesday

Time Temperature Precipitation Wind Pressure Humidity
00:00 +20°C° 0.6 mm 1 mps 672 mmHg 98%
01:00 +18°C° 0.6 mm 0 mps 671 mmHg 98%
02:00 +20°C° 0.2 mm 1 mps 671 mmHg 98%
03:00 +20°C° 0.2 mm 1 mps 671 mmHg 98%
04:00 +20°C° 0.2 mm 1 mps 671 mmHg 97%
05:00 +18°C° 0.1 mm 0 mps 672 mmHg 97%
06:00 +18°C° 0.1 mm 0 mps 672 mmHg 97%
07:00 +18°C° 0.1 mm 0 mps 673 mmHg 97%
08:00 +20°C° 0.1 mm 0 mps 673 mmHg 90%
09:00 +24°C° 0.1 mm 1 mps 673 mmHg 82%
10:00 +25°C° 0.1 mm 1 mps 673 mmHg 75%
11:00 +26°C° 0.2 mm 1 mps 673 mmHg 72%
12:00 +27°C° 0.2 mm 1 mps 672 mmHg 69%
13:00 +28°C° 0.2 mm 1 mps 671 mmHg 67%
14:00 +26°C° 1.2 mm 1 mps 671 mmHg 74%
15:00 +25°C° 1.2 mm 1 mps 670 mmHg 82%
16:00 +24°C° 1.2 mm 1 mps 670 mmHg 89%
17:00 +23°C° 3.4 mm 1 mps 670 mmHg 92%
18:00 +20°C° 3.4 mm 0 mps 670 mmHg 95%
19:00 +20°C° 3.4 mm 0 mps 671 mmHg 98%
20:00 +19°C° 1.1 mm 0 mps 671 mmHg 98%
21:00 +19°C° 1.1 mm 0 mps 672 mmHg 98%
22:00 +21°C° 1.1 mm 1 mps 672 mmHg 98%
23:00 +20°C° 0.3 mm 1 mps 672 mmHg 98%

19 May, Wednesday

Time Temperature Precipitation Wind Pressure Humidity
00:00 +18°C° 0.3 mm 0 mps 672 mmHg 98%
01:00 +18°C° 0.3 mm 0 mps 672 mmHg 97%
02:00 +20°C° 0.1 mm 1 mps 671 mmHg 97%
03:00 +20°C° 0.1 mm 1 mps 671 mmHg 97%
04:00 +20°C° 0.1 mm 1 mps 671 mmHg 97%
05:00 +20°C° 0.2 mm 1 mps 671 mmHg 97%
06:00 +20°C° 0.2 mm 1 mps 671 mmHg 96%
07:00 +20°C° 0.2 mm 1 mps 672 mmHg 96%
08:00 +22°C° 0 mm 1 mps 672 mmHg 90%
09:00 +21°C° 0 mm 0 mps 672 mmHg 83%
10:00 +23°C° 0 mm 0 mps 673 mmHg 77%
11:00 +26°C° 0.3 mm 1 mps 672 mmHg 73%
12:00 +27°C° 0.3 mm 1 mps 672 mmHg 68%
13:00 +28°C° 0.3 mm 1 mps 671 mmHg 64%
14:00 +28°C° 0.8 mm 1 mps 671 mmHg 69%
15:00 +27°C° 0.8 mm 1 mps 670 mmHg 74%
16:00 +26°C° 0.8 mm 1 mps 670 mmHg 79%
17:00 +25°C° 1.4 mm 1 mps 670 mmHg 84%
18:00 +23°C° 1.4 mm 1 mps 670 mmHg 89%
19:00 +22°C° 1.4 mm 1 mps 670 mmHg 94%
20:00 +21°C° 1.6 mm 1 mps 671 mmHg 95%
21:00 +21°C° 1.6 mm 1 mps 671 mmHg 96%
22:00 +20°C° 1.6 mm 1 mps 671 mmHg 96%
23:00 +20°C° 0.5 mm 1 mps 671 mmHg 97%
Show more

We Need Your Consent

Meteoprog and our Service Providers may store and access personal data such as cookies, device identifiers or other similar technologies on your device and process such data to personalise content and ads, as well as provide social media features and to analyse the traffic.

  • Store and/or access information on your device

    Cookies, device identifiers or other information can be stored or accessed on your device for the purposes indicated above.

  • Personalised ads and content, ad and content measurement, audience insights, and products development

    Ads and content can be personalised based on a profile. More data can be added to better personalise ads and content. Ad and content performance can be measured. Insights about the audience who saw the ads and content can be derived. Such data can be used to develop or improve user’s experience, systems and software.

By clicking ‘I Agree’ you will allow the use of indicated cookies, device identifiers, web beacons or other similar technologies. Your settings can be changed in the browser on your device.

For certain purposes, legitimate interests may be relied on, rather than consent. You can read more about this in our Privacy and Cookie Policy.